Time,TemperatureF,DewpointF,PressureIn,WindDirection,WindDirectionDegrees,WindSpeedMPH,WindSpeedGustMPH,Humidity,HourlyPrecipIn,Conditions,Clouds,dailyrainin,SolarRadiationWatts/m^2,SoftwareType,DateUTC
2013-06-18 00:05:00,57.7,52.9,29.95,NE,52,0.0,0.0,84,0.00,,,0.00,0,Wunderground v.1.15,2013-06-18 05:05:00,
2013-06-18 00:14:00,57.2,52.7,29.96,NE,52,0.0,0.0,85,0.00,,,0.00,0,Wunderground v.1.15,2013-06-18 05:14:00,
2013-06-18 00:24:00,57.4,52.6,29.95,NE,52,0.0,0.0,84,0.00,,,0.00,0,Wunderground v.1.15,2013-06-18 05:24:00,
2013-06-18 00:34:00,57.1,52.3,29.95,NE,52,0.0,0.0,84,0.00,,,0.00,0,Wunderground v.1.15,2013-06-18 05:34:00,
2013-06-18 00:45:00,57.1,52.3,29.95,NE,52,0.0,0.0,84,0.00,,,0.00,0,Wunderground v.1.15,2013-06-18 05:45:00,
2013-06-18 00:54:00,57.2,52.1,29.96,NNE,21,0.0,3.0,83,0.00,,,0.00,0,Wunderground v.1.15,2013-06-18 05:54:00,
2013-06-18 01:05:00,57.4,51.9,29.96,NE,49,0.0,0.0,82,0.00,,,0.00,0,Wunderground v.1.15,2013-06-18 06:05:00,
2013-06-18 01:14:00,57.3,51.9,29.96,NE,36,1.0,2.0,82,0.00,,,0.00,0,Wunderground v.1.15,2013-06-18 06:14:00,
2013-06-18 01:24:00,57.5,51.7,29.96,NNE,26,1.0,2.0,81,0.00,,,0.00,0,Wunderground v.1.15,2013-06-18 06:24:00,
2013-06-18 01:29:00,57.4,51.6,29.97,NNE,33,1.0,1.0,81,0.00,,,0.00,0,Wunderground v.1.15,2013-06-18 06:29:00,
2013-06-18 01:39:00,57.5,51.7,29.97,NE,55,0.0,0.0,81,0.00,,,0.00,0,Wunderground v.1.15,2013-06-18 06:39:00,
2013-06-18 01:45:00,57.5,51.4,29.97,NE,49,1.0,1.0,80,0.00,,,0.00,0,Wunderground v.1.15,2013-06-18 06:45:00,
2013-06-18 01:50:00,57.3,51.2,29.97,NE,49,0.0,0.0,80,0.00,,,0.00,0,Wunderground v.1.15,2013-06-18 06:50:00,
2013-06-18 01:59:00,56.9,51.5,29.97,NE,49,0.0,0.0,82,0.00,,,0.00,0,Wunderground v.1.15,2013-06-18 06:59:00,
2013-06-18 02:04:00,57.0,51.2,29.97,ESE,105,0.0,0.0,81,0.00,,,0.00,0,Wunderground v.1.15,2013-06-18 07:04:00,
2013-06-18 02:14:00,56.9,51.1,29.97,NE,52,0.0,0.0,81,0.00,,,0.00,0,Wunderground v.1.15,2013-06-18 07:14:00,
2013-06-18 02:24:00,56.8,51.0,29.97,NE,46,1.0,4.0,81,0.00,,,0.00,0,Wunderground v.1.15,2013-06-18 07:24:00,
2013-06-18 02:30:00,56.9,51.5,29.97,ENE,58,1.0,3.0,82,0.00,,,0.00,0,Wunderground v.1.15,2013-06-18 07:30:00,
2013-06-18 02:40:00,56.8,51.4,29.97,NE,55,1.0,1.0,82,0.00,,,0.00,0,Wunderground v.1.15,2013-06-18 07:40:00,
2013-06-18 02:49:00,56.8,51.0,29.97,NE,46,1.0,1.0,81,0.00,,,0.00,0,Wunderground v.1.15,2013-06-18 07:49:00,
2013-06-18 02:59:00,56.7,51.3,29.97,NE,40,1.0,1.0,82,0.00,,,0.00,0,Wunderground v.1.15,2013-06-18 07:59:00,
2013-06-18 03:04:00,56.7,51.3,29.97,ENE,69,1.0,2.0,82,0.00,,,0.00,0,Wunderground v.1.15,2013-06-18 08:04:00,
2013-06-18 03:09:00,56.5,51.1,29.97,East,81,1.0,1.0,82,0.00,,,0.00,0,Wunderground v.1.15,2013-06-18 08:09:00,
2013-06-18 03:19:00,56.4,51.0,29.97,NE,35,1.0,1.0,82,0.00,,,0.00,0,Wunderground v.1.15,2013-06-18 08:19:00,
2013-06-18 03:25:00,56.4,51.0,29.97,East,82,1.0,1.0,82,0.00,,,0.00,0,Wunderground v.1.15,2013-06-18 08:25:00,
2013-06-18 03:35:00,56.4,51.6,29.97,NE,46,1.0,3.0,84,0.00,,,0.00,0,Wunderground v.1.15,2013-06-18 08:35:00,
2013-06-18 03:40:00,56.3,51.2,29.97,NE,49,1.0,1.0,83,0.00,,,0.00,0,Wunderground v.1.15,2013-06-18 08:40:00,
2013-06-18 03:49:00,56.2,51.1,29.97,NE,42,0.0,0.0,83,0.00,,,0.00,0,Wunderground v.1.15,2013-06-18 08:49:00,
2013-06-18 03:59:00,55.9,50.8,29.97,ENE,67,2.0,2.0,83,0.00,,,0.00,0,Wunderground v.1.15,2013-06-18 08:59:00,
2013-06-18 04:04:00,55.9,51.1,29.97,NNE,22,2.0,5.0,84,0.00,,,0.00,0,Wunderground v.1.15,2013-06-18 09:04:00,
2013-06-18 04:15:00,55.8,50.7,29.98,East,88,1.0,2.0,83,0.00,,,0.00,0,Wunderground v.1.15,2013-06-18 09:15:00,
2013-06-18 04:25:00,55.5,50.4,29.97,NE,34,2.0,2.0,83,0.00,,,0.00,0,Wunderground v.1.15,2013-06-18 09:25:00,
2013-06-18 04:34:00,55.6,50.5,29.98,NE,42,2.0,2.0,83,0.00,,,0.00,0,Wunderground v.1.15,2013-06-18 09:34:00,
2013-06-18 04:44:00,55.6,50.2,29.99,NNE,22,2.0,5.0,82,0.00,,,0.00,0,Wunderground v.1.15,2013-06-18 09:44:00,
2013-06-18 04:54:00,55.3,50.5,29.99,NE,51,2.0,2.0,84,0.00,,,0.00,0,Wunderground v.1.15,2013-06-18 09:54:00,
2013-06-18 05:00:00,55.2,50.4,29.99,East,88,2.0,2.0,84,0.00,,,0.00,0,Wunderground v.1.15,2013-06-18 10:00:00,
2013-06-18 05:10:00,55.0,49.9,29.99,North,11,2.0,2.0,83,0.00,,,0.00,0,Wunderground v.1.15,2013-06-18 10:10:00,
2013-06-18 05:20:00,54.9,50.2,30.00,NE,42,2.0,2.0,84,0.00,,,0.00,11,Wunderground v.1.15,2013-06-18 10:20:00,
2013-06-18 05:25:00,55.1,50.4,30.00,NNE,22,1.0,6.0,84,0.00,,,0.00,14,Wunderground v.1.15,2013-06-18 10:25:00,
2013-06-18 05:34:00,55.1,50.4,30.00,NNE,17,1.0,5.0,84,0.00,,,0.00,14,Wunderground v.1.15,2013-06-18 10:34:00,
2013-06-18 05:44:00,54.9,50.2,30.01,North,10,2.0,3.0,84,0.00,,,0.00,16,Wunderground v.1.15,2013-06-18 10:44:00,
2013-06-18 05:54:00,54.9,50.2,30.01,NE,38,2.0,2.0,84,0.00,,,0.00,19,Wunderground v.1.15,2013-06-18 10:54:00,
2013-06-18 06:00:00,55.0,50.6,30.01,NE,55,2.0,4.0,85,0.00,,,0.00,21,Wunderground v.1.15,2013-06-18 11:00:00,
2013-06-18 06:05:00,55.0,50.3,30.01,NE,44,2.0,4.0,84,0.00,,,0.00,23,Wunderground v.1.15,2013-06-18 11:05:00,
2013-06-18 06:15:00,55.0,50.3,30.02,NE,42,2.0,3.0,84,0.00,,,0.00,28,Wunderground v.1.15,2013-06-18 11:15:00,
2013-06-18 06:24:00,55.1,50.7,30.02,NNE,26,3.0,3.0,85,0.00,,,0.00,37,Wunderground v.1.15,2013-06-18 11:24:00,
2013-06-18 06:34:00,55.3,50.9,30.02,ENE,71,4.0,4.0,85,0.00,,,0.00,42,Wunderground v.1.15,2013-06-18 11:34:00,
2013-06-18 06:44:00,55.4,51.0,30.03,NNE,25,5.0,6.0,85,0.00,,,0.00,60,Wunderground v.1.15,2013-06-18 11:44:00,
2013-06-18 06:54:00,55.6,51.2,30.03,NE,44,2.0,4.0,85,0.00,,,0.00,105,Wunderground v.1.15,2013-06-18 11:54:00,
2013-06-18 07:00:00,55.6,51.5,30.03,NNE,19,2.0,4.0,86,0.00,,,0.00,121,Wunderground v.1.15,2013-06-18 12:00:00,
2013-06-18 07:05:00,55.4,51.3,30.03,NNE,29,4.0,4.0,86,0.00,,,0.00,111,Wunderground v.1.15,2013-06-18 12:05:00,
2013-06-18 07:15:00,55.1,51.3,30.04,ENE,62,5.0,6.0,87,0.00,,,0.00,134,Wunderground v.1.15,2013-06-18 12:15:00,
2013-06-18 07:24:00,55.5,52.3,30.04,NNE,12,4.0,4.0,89,0.00,,,0.00,95,Wunderground v.1.15,2013-06-18 12:24:00,
2013-06-18 07:34:00,56.0,52.8,30.04,ENE,76,2.0,7.0,89,0.00,,,0.00,156,Wunderground v.1.15,2013-06-18 12:34:00,
2013-06-18 07:44:00,56.4,52.9,30.04,NE,53,2.0,3.0,88,0.00,,,0.00,272,Wunderground v.1.15,2013-06-18 12:44:00,
2013-06-18 07:49:00,56.9,53.1,30.05,NNE,12,1.0,1.0,87,0.00,,,0.00,237,Wunderground v.1.15,2013-06-18 12:49:00,
2013-06-18 07:55:00,57.4,53.6,30.05,North,11,1.0,2.0,87,0.00,,,0.00,341,Wunderground v.1.15,2013-06-18 12:55:00,
2013-06-18 08:05:00,58.5,53.7,30.05,ENE,61,2.0,2.0,84,0.00,,,0.00,478,Wunderground v.1.15,2013-06-18 13:05:00,
2013-06-18 08:14:00,59.7,54.2,30.04,East,96,1.0,3.0,82,0.00,,,0.00,547,Wunderground v.1.15,2013-06-18 13:14:00,
2013-06-18 08:19:00,60.2,54.3,30.04,ENE,69,2.0,2.0,81,0.00,,,0.00,545,Wunderground v.1.15,2013-06-18 13:19:00,
2013-06-18 08:29:00,60.7,54.5,30.04,NE,53,2.0,2.0,80,0.00,,,0.00,568,Wunderground v.1.15,2013-06-18 13:29:00,
2013-06-18 08:39:00,61.3,54.7,30.04,NNW,346,1.0,2.0,79,0.00,,,0.00,473,Wunderground v.1.15,2013-06-18 13:39:00,
2013-06-18 08:50:00,61.9,55.3,30.04,NE,40,3.0,3.0,79,0.00,,,0.00,357,Wunderground v.1.15,2013-06-18 13:50:00,
2013-06-18 08:59:00,62.1,55.2,30.04,NE,46,2.0,2.0,78,0.00,,,0.00,599,Wunderground v.1.15,2013-06-18 13:59:00,
2013-06-18 09:05:00,62.5,55.2,30.04,SE,131,1.0,2.0,77,0.00,,,0.00,443,Wunderground v.1.15,2013-06-18 14:05:00,
2013-06-18 09:14:00,62.2,55.3,30.04,ESE,114,1.0,2.0,78,0.00,,,0.00,724,Wunderground v.1.15,2013-06-18 14:14:00,
2013-06-18 09:24:00,63.5,55.8,30.04,NNE,16,2.0,8.0,76,0.00,,,0.00,671,Wunderground v.1.15,2013-06-18 14:24:00,
2013-06-18 09:34:00,62.6,55.6,30.04,SSE,155,4.0,5.0,78,0.00,,,0.00,183,Wunderground v.1.15,2013-06-18 14:34:00,
2013-06-18 09:45:00,63.1,55.8,30.05,NE,39,2.0,2.0,77,0.00,,,0.00,554,Wunderground v.1.15,2013-06-18 14:45:00,
2013-06-18 09:54:00,63.6,55.9,30.04,SSE,155,4.0,6.0,76,0.00,,,0.00,768,Wunderground v.1.15,2013-06-18 14:54:00,
2013-06-18 09:59:00,64.1,56.4,30.05,ENE,75,3.0,4.0,76,0.00,,,0.00,844,Wunderground v.1.15,2013-06-18 14:59:00,
2013-06-18 10:04:00,64.9,56.4,30.04,SE,136,2.0,4.0,74,0.00,,,0.00,902,Wunderground v.1.15,2013-06-18 15:04:00,
2013-06-18 10:14:00,65.4,56.1,30.04,ENE,67,2.0,2.0,72,0.00,,,0.00,828,Wunderground v.1.15,2013-06-18 15:14:00,
2013-06-18 10:20:00,65.5,56.2,30.04,SSE,156,3.0,3.0,72,0.00,,,0.00,828,Wunderground v.1.15,2013-06-18 15:20:00,
2013-06-18 10:30:00,65.1,56.2,30.04,NE,38,2.0,2.0,73,0.00,,,0.00,362,Wunderground v.1.15,2013-06-18 15:30:00,
2013-06-18 10:39:00,65.2,55.9,30.05,NNW,334,2.0,4.0,72,0.00,,,0.00,812,Wunderground v.1.15,2013-06-18 15:39:00,
2013-06-18 10:49:00,66.3,55.8,30.04,North,355,3.0,3.0,69,0.00,,,0.00,856,Wunderground v.1.15,2013-06-18 15:49:00,
2013-06-18 10:59:00,66.0,55.5,30.04,NNE,33,4.0,4.0,69,0.00,,,0.00,956,Wunderground v.1.15,2013-06-18 15:59:00,
2013-06-18 11:04:00,66.2,56.5,30.04,NE,48,4.0,4.0,71,0.00,,,0.00,947,Wunderground v.1.15,2013-06-18 16:04:00,
2013-06-18 11:10:00,66.8,56.3,30.04,SE,128,3.0,4.0,69,0.00,,,0.00,998,Wunderground v.1.15,2013-06-18 16:10:00,
2013-06-18 11:20:00,66.2,56.9,30.04,ESE,119,5.0,5.0,72,0.00,,,0.00,882,Wunderground v.1.15,2013-06-18 16:20:00,
2013-06-18 11:29:00,65.1,55.8,30.05,East,92,6.0,6.0,72,0.00,,,0.00,1074,Wunderground v.1.15,2013-06-18 16:29:00,
2013-06-18 11:39:00,66.6,56.1,30.05,NE,34,2.0,2.0,69,0.00,,,0.00,1071,Wunderground v.1.15,2013-06-18 16:39:00,
2013-06-18 11:49:00,65.5,55.8,30.05,East,88,5.0,5.0,71,0.00,,,0.00,322,Wunderground v.1.15,2013-06-18 16:49:00,
2013-06-18 11:59:00,65.6,55.9,30.05,NNE,30,4.0,4.0,71,0.00,,,0.00,341,Wunderground v.1.15,2013-06-18 16:59:00,
2013-06-18 12:04:00,65.6,55.9,30.05,NE,53,4.0,4.0,71,0.00,,,0.00,1169,Wunderground v.1.15,2013-06-18 17:04:00,
2013-06-18 12:10:00,65.8,55.7,30.05,ENE,73,3.0,3.0,70,0.00,,,0.00,1085,Wunderground v.1.15,2013-06-18 17:10:00,
2013-06-18 12:20:00,66.7,56.6,30.05,NE,42,4.0,4.0,70,0.00,,,0.00,1134,Wunderground v.1.15,2013-06-18 17:20:00,
2013-06-18 12:29:00,67.4,56.5,30.05,ENE,58,3.0,3.0,68,0.00,,,0.00,1086,Wunderground v.1.15,2013-06-18 17:29:00,
2013-06-18 12:34:00,68.1,57.1,30.05,SSW,212,3.0,3.0,68,0.00,,,0.00,1215,Wunderground v.1.15,2013-06-18 17:34:00,
2013-06-18 12:44:00,67.6,56.2,30.06,SE,141,3.0,3.0,67,0.00,,,0.00,1174,Wunderground v.1.15,2013-06-18 17:44:00,
2013-06-18 12:54:00,67.3,55.1,30.05,NW,322,4.0,4.0,65,0.00,,,0.00,360,Wunderground v.1.15,2013-06-18 17:54:00,
2013-06-18 13:00:00,67.6,55.8,30.05,ESE,115,4.0,4.0,66,0.00,,,0.00,1123,Wunderground v.1.15,2013-06-18 18:00:00,
2013-06-18 13:10:00,67.1,54.5,30.05,NE,56,4.0,6.0,64,0.00,,,0.00,415,Wunderground v.1.15,2013-06-18 18:10:00,
2013-06-18 13:19:00,67.4,55.6,30.06,East,88,2.0,4.0,66,0.00,,,0.00,390,Wunderground v.1.15,2013-06-18 18:19:00,
2013-06-18 13:29:00,67.2,55.9,30.06,NE,36,4.0,6.0,67,0.00,,,0.00,888,Wunderground v.1.15,2013-06-18 18:29:00,
2013-06-18 13:39:00,67.7,55.5,30.06,SE,142,3.0,3.0,65,0.00,,,0.00,986,Wunderground v.1.15,2013-06-18 18:39:00,
2013-06-18 13:50:00,67.7,55.1,30.06,SE,125,3.0,3.0,64,0.00,,,0.00,909,Wunderground v.1.15,2013-06-18 18:50:00,
2013-06-18 13:55:00,68.8,56.6,30.06,North,351,2.0,3.0,65,0.00,,,0.00,1035,Wunderground v.1.15,2013-06-18 18:55:00,
2013-06-18 14:05:00,68.3,53.9,30.06,NNE,19,2.0,7.0,60,0.00,,,0.00,1229,Wunderground v.1.15,2013-06-18 19:05:00,
2013-06-18 14:15:00,67.7,54.6,30.06,NNE,13,4.0,4.0,63,0.00,,,0.00,735,Wunderground v.1.15,2013-06-18 19:15:00,
2013-06-18 14:24:00,68.3,55.6,30.06,NNE,28,2.0,4.0,64,0.00,,,0.00,867,Wunderground v.1.15,2013-06-18 19:24:00,
2013-06-18 14:30:00,68.9,54.4,30.06,ESE,103,2.0,2.0,60,0.00,,,0.00,916,Wunderground v.1.15,2013-06-18 19:30:00,
2013-06-18 14:40:00,68.9,54.9,30.07,NE,36,2.0,4.0,61,0.00,,,0.00,939,Wunderground v.1.15,2013-06-18 19:40:00,
2013-06-18 14:49:00,69.2,50.8,30.07,NE,40,2.0,3.0,52,0.00,,,0.00,898,Wunderground v.1.15,2013-06-18 19:49:00,
2013-06-18 14:59:00,69.6,53.2,30.07,SSE,150,2.0,2.0,56,0.00,,,0.00,877,Wunderground v.1.15,2013-06-18 19:59:00,
2013-06-18 15:04:00,69.4,52.0,30.06,NE,37,2.0,3.0,54,0.00,,,0.00,868,Wunderground v.1.15,2013-06-18 20:04:00,
2013-06-18 15:09:00,69.8,51.9,30.06,ENE,65,2.0,2.0,53,0.00,,,0.00,854,Wunderground v.1.15,2013-06-18 20:09:00,
2013-06-18 15:19:00,69.9,52.5,30.06,East,89,2.0,2.0,54,0.00,,,0.00,830,Wunderground v.1.15,2013-06-18 20:19:00,
2013-06-18 15:25:00,69.9,49.9,30.06,NNE,30,2.0,2.0,49,0.00,,,0.00,817,Wunderground v.1.15,2013-06-18 20:25:00,
2013-06-18 15:30:00,70.5,51.5,30.07,NNE,25,2.0,2.0,51,0.00,,,0.00,807,Wunderground v.1.15,2013-06-18 20:30:00,
2013-06-18 15:40:00,70.2,49.6,30.06,NNW,336,2.0,2.0,48,0.00,,,0.00,786,Wunderground v.1.15,2013-06-18 20:40:00,
2013-06-18 15:49:00,70.0,50.0,30.06,NE,51,2.0,2.0,49,0.00,,,0.00,765,Wunderground v.1.15,2013-06-18 20:49:00,
2013-06-18 15:59:00,69.7,47.4,30.06,NNE,33,2.0,2.0,45,0.00,,,0.00,742,Wunderground v.1.15,2013-06-18 20:59:00,
2013-06-18 16:04:00,70.5,51.0,30.06,NNW,339,2.0,2.0,50,0.00,,,0.00,728,Wunderground v.1.15,2013-06-18 21:04:00,
2013-06-18 16:14:00,69.7,49.7,30.06,East,97,4.0,4.0,49,0.00,,,0.00,705,Wunderground v.1.15,2013-06-18 21:14:00,
2013-06-18 16:24:00,69.6,49.0,30.06,NNE,15,3.0,9.0,48,0.00,,,0.00,680,Wunderground v.1.15,2013-06-18 21:24:00,
2013-06-18 16:30:00,69.8,50.3,30.06,East,81,3.0,3.0,50,0.00,,,0.00,661,Wunderground v.1.15,2013-06-18 21:30:00,
2013-06-18 16:40:00,70.0,48.3,30.06,South,174,2.0,2.0,46,0.00,,,0.00,638,Wunderground v.1.15,2013-06-18 21:40:00,
2013-06-18 16:49:00,69.8,49.2,30.06,NNE,29,3.0,6.0,48,0.00,,,0.00,613,Wunderground v.1.15,2013-06-18 21:49:00,
2013-06-18 16:59:00,69.0,48.5,30.06,North,5,6.0,6.0,48,0.00,,,0.00,585,Wunderground v.1.15,2013-06-18 21:59:00,
2013-06-18 17:04:00,69.5,50.6,30.06,NE,46,5.0,6.0,51,0.00,,,0.00,571,Wunderground v.1.15,2013-06-18 22:04:00,
2013-06-18 17:14:00,69.6,50.7,30.06,NNE,19,4.0,9.0,51,0.00,,,0.00,536,Wunderground v.1.15,2013-06-18 22:14:00,
2013-06-18 17:25:00,69.5,51.1,30.05,North,5,2.0,2.0,52,0.00,,,0.00,512,Wunderground v.1.15,2013-06-18 22:25:00,
2013-06-18 17:35:00,69.2,51.8,30.05,ESE,123,2.0,2.0,54,0.00,,,0.00,483,Wunderground v.1.15,2013-06-18 22:35:00,
2013-06-18 17:45:00,68.9,51.6,30.06,NNE,16,2.0,4.0,54,0.00,,,0.00,454,Wunderground v.1.15,2013-06-18 22:45:00,
2013-06-18 17:50:00,68.7,51.9,30.06,NE,50,3.0,4.0,55,0.00,,,0.00,436,Wunderground v.1.15,2013-06-18 22:50:00,
2013-06-18 17:59:00,68.7,52.4,30.06,North,11,1.0,1.0,56,0.00,,,0.00,411,Wunderground v.1.15,2013-06-18 22:59:00,
2013-06-18 18:04:00,68.6,52.3,30.06,ESE,119,1.0,1.0,56,0.00,,,0.00,394,Wunderground v.1.15,2013-06-18 23:04:00,
2013-06-18 18:14:00,68.0,51.7,30.06,ESE,102,2.0,2.0,56,0.00,,,0.00,364,Wunderground v.1.15,2013-06-18 23:14:00,
2013-06-18 18:24:00,67.8,50.5,30.07,ESE,107,1.0,2.0,54,0.00,,,0.00,334,Wunderground v.1.15,2013-06-18 23:24:00,
2013-06-18 18:30:00,67.9,50.6,30.07,ENE,57,0.0,1.0,54,0.00,,,0.00,316,Wunderground v.1.15,2013-06-18 23:30:00,
2013-06-18 18:40:00,67.4,50.7,30.07,NE,55,1.0,1.0,55,0.00,,,0.00,290,Wunderground v.1.15,2013-06-18 23:40:00,
2013-06-18 18:49:00,67.2,51.0,30.07,East,100,1.0,1.0,56,0.00,,,0.00,253,Wunderground v.1.15,2013-06-18 23:49:00,
2013-06-18 18:59:00,67.1,49.4,30.07,NE,35,1.0,1.0,53,0.00,,,0.00,214,Wunderground v.1.15,2013-06-18 23:59:00,
2013-06-18 19:04:00,67.0,49.3,30.07,NNE,28,2.0,2.0,53,0.00,,,0.00,195,Wunderground v.1.15,2013-06-19 00:04:00,
2013-06-18 19:14:00,66.6,48.9,30.07,East,80,1.0,3.0,53,0.00,,,0.00,156,Wunderground v.1.15,2013-06-19 00:14:00,
2013-06-18 19:25:00,66.6,48.4,30.07,NE,42,1.0,2.0,52,0.00,,,0.00,120,Wunderground v.1.15,2013-06-19 00:25:00,
2013-06-18 19:35:00,65.2,48.1,30.07,ENE,65,1.0,2.0,54,0.00,,,0.00,88,Wunderground v.1.15,2013-06-19 00:35:00,
2013-06-18 19:44:00,65.0,47.9,30.08,NE,51,0.0,2.0,54,0.00,,,0.00,62,Wunderground v.1.15,2013-06-19 00:44:00,
2013-06-18 19:54:00,64.0,47.0,30.08,ENE,67,1.0,1.0,54,0.00,,,0.00,37,Wunderground v.1.15,2013-06-19 00:54:00,
2013-06-18 20:04:00,63.2,47.2,30.08,NE,38,0.0,0.0,56,0.00,,,0.00,21,Wunderground v.1.15,2013-06-19 01:04:00,
2013-06-18 20:14:00,62.9,48.8,30.08,North,11,0.0,0.0,60,0.00,,,0.00,14,Wunderground v.1.15,2013-06-19 01:14:00,
2013-06-18 20:20:00,62.6,49.0,30.08,NE,55,0.0,0.0,61,0.00,,,0.00,11,Wunderground v.1.15,2013-06-19 01:20:00,
2013-06-18 20:30:00,61.1,47.1,30.08,NNE,25,0.0,0.0,60,0.00,,,0.00,5,Wunderground v.1.15,2013-06-19 01:30:00,
2013-06-18 20:39:00,60.0,47.4,30.08,SE,141,0.0,0.0,63,0.00,,,0.00,0,Wunderground v.1.15,2013-06-19 01:39:00,
2013-06-18 20:49:00,59.6,46.6,30.08,ENE,71,0.0,0.0,62,0.00,,,0.00,0,Wunderground v.1.15,2013-06-19 01:49:00,
2013-06-18 20:59:00,59.1,46.5,30.07,ENE,71,0.0,0.0,63,0.00,,,0.00,0,Wunderground v.1.15,2013-06-19 01:59:00,
2013-06-18 21:04:00,58.9,46.3,30.07,NNE,25,0.0,3.0,63,0.00,,,0.00,0,Wunderground v.1.15,2013-06-19 02:04:00,
2013-06-18 21:14:00,58.6,45.6,30.08,East,80,0.0,0.0,62,0.00,,,0.00,0,Wunderground v.1.15,2013-06-19 02:14:00,
2013-06-18 21:20:00,58.5,45.5,30.08,NNE,30,0.0,0.0,62,0.00,,,0.00,0,Wunderground v.1.15,2013-06-19 02:20:00,
2013-06-18 21:30:00,57.8,44.0,30.08,East,91,0.0,0.0,60,0.00,,,0.00,0,Wunderground v.1.15,2013-06-19 02:30:00,
2013-06-18 21:39:00,57.4,44.1,30.09,East,91,0.0,0.0,61,0.00,,,0.00,0,Wunderground v.1.15,2013-06-19 02:39:00,
2013-06-18 21:49:00,57.2,43.9,30.09,East,91,0.0,0.0,61,0.00,,,0.00,0,Wunderground v.1.15,2013-06-19 02:49:00,
2013-06-18 21:59:00,56.7,43.0,30.09,East,91,0.0,0.0,60,0.00,,,0.00,0,Wunderground v.1.15,2013-06-19 02:59:00,
2013-06-18 22:04:00,56.8,43.5,30.09,East,91,0.0,0.0,61,0.00,,,0.00,0,Wunderground v.1.15,2013-06-19 03:04:00,
2013-06-18 22:10:00,56.9,44.4,30.09,East,91,0.0,0.0,63,0.00,,,0.00,0,Wunderground v.1.15,2013-06-19 03:10:00,
2013-06-18 22:19:00,56.6,42.4,30.09,East,92,0.0,0.0,59,0.00,,,0.00,0,Wunderground v.1.15,2013-06-19 03:19:00,
2013-06-18 22:29:00,56.4,41.8,30.09,East,91,0.0,0.0,58,0.00,,,0.00,0,Wunderground v.1.15,2013-06-19 03:29:00,
2013-06-18 22:35:00,56.2,42.1,30.09,East,91,0.0,0.0,59,0.00,,,0.00,0,Wunderground v.1.15,2013-06-19 03:35:00,
2013-06-18 22:45:00,56.0,41.4,30.09,East,91,0.0,0.0,58,0.00,,,0.00,0,Wunderground v.1.15,2013-06-19 03:45:00,
2013-06-18 22:54:00,56.3,41.3,30.09,East,92,0.0,0.0,57,0.00,,,0.00,0,Wunderground v.1.15,2013-06-19 03:54:00,
2013-06-18 23:05:00,55.4,41.3,30.09,East,91,0.0,0.0,59,0.00,,,0.00,0,Wunderground v.1.15,2013-06-19 04:05:00,
2013-06-18 23:09:00,54.9,41.7,30.09,East,91,0.0,0.0,61,0.00,,,0.00,0,Wunderground v.1.15,2013-06-19 04:09:00,
2013-06-18 23:14:00,54.9,41.3,30.10,East,91,0.0,0.0,60,0.00,,,0.00,0,Wunderground v.1.15,2013-06-19 04:14:00,
2013-06-18 23:19:00,54.9,40.8,30.10,East,91,0.0,0.0,59,0.00,,,0.00,0,Wunderground v.1.15,2013-06-19 04:19:00,
2013-06-18 23:30:00,54.3,41.6,30.09,East,91,0.0,0.0,62,0.00,,,0.00,0,Wunderground v.1.15,2013-06-19 04:30:00,
2013-06-18 23:40:00,52.9,41.4,30.09,East,91,0.0,0.0,65,0.00,,,0.00,0,Wunderground v.1.15,2013-06-19 04:40:00,
2013-06-18 23:45:00,53.5,41.2,30.09,East,91,0.0,0.0,63,0.00,,,0.00,0,Wunderground v.1.15,2013-06-19 04:45:00,
2013-06-18 23:54:00,53.0,41.1,30.09,East,91,0.0,0.0,64,0.00,,,0.00,0,Wunderground v.1.15,2013-06-19 04:54:00,